TimeEST,TemperatureF,Dew PointF,Humidity,Sea Level PressureIn,VisibilityMPH,Wind Direction,Wind SpeedMPH,Gust SpeedMPH,PrecipitationIn,Events,Conditions,WindDirDegrees,DateUTC
12:15 AM,48.2,46.4,93,29.99,5.0,West,10.4,-,N/A,,Overcast,270,2012-12-09 05:15:00
1:15 AM,48.2,46.4,93,30.01,3.0,West,10.4,-,N/A,,Overcast,270,2012-12-09 06:15:00
1:35 AM,48.2,46.4,93,30.03,2.5,West,10.4,-,N/A,,Overcast,260,2012-12-09 06:35:00
1:55 AM,48.2,46.4,93,30.03,5.0,West,10.4,-,N/A,,Overcast,260,2012-12-09 06:55:00
2:15 AM,48.2,46.4,93,30.03,5.0,West,9.2,-,N/A,,Overcast,280,2012-12-09 07:15:00
2:35 AM,48.2,46.4,93,30.04,5.0,West,9.2,-,N/A,,Overcast,280,2012-12-09 07:35:00
2:55 AM,48.2,46.4,93,30.05,4.0,West,10.4,-,N/A,,Overcast,280,2012-12-09 07:55:00
3:15 AM,48.2,46.4,93,30.05,3.0,WNW,6.9,-,N/A,,Overcast,290,2012-12-09 08:15:00
3:55 AM,48.2,46.4,93,30.07,3.0,West,8.1,-,N/A,,Overcast,280,2012-12-09 08:55:00
4:15 AM,48.2,46.4,93,30.08,4.0,NW,8.1,-,N/A,,Overcast,320,2012-12-09 09:15:00
4:35 AM,48.2,46.4,93,30.08,5.0,NW,6.9,-,N/A,,Overcast,310,2012-12-09 09:35:00
4:55 AM,48.2,46.4,93,30.09,7.0,NW,4.6,-,N/A,,Overcast,310,2012-12-09 09:55:00
5:35 AM,48.2,44.6,87,30.11,10.0,NNW,4.6,-,N/A,,Partly Cloudy,330,2012-12-09 10:35:00
5:55 AM,48.2,42.8,82,30.13,10.0,NNW,4.6,-,N/A,,Clear,330,2012-12-09 10:55:00
6:15 AM,48.2,42.8,82,30.14,10.0,NNW,4.6,-,N/A,,Clear,330,2012-12-09 11:15:00
6:35 AM,46.4,42.8,87,30.15,10.0,NNW,5.8,-,N/A,,Clear,330,2012-12-09 11:35:00
7:15 AM,46.4,41.0,81,30.17,10.0,NNW,6.9,-,N/A,,Partly Cloudy,340,2012-12-09 12:15:00
7:35 AM,46.4,41.0,81,30.17,10.0,North,5.8,-,N/A,,Mostly Cloudy,360,2012-12-09 12:35:00
8:55 AM,46.4,37.4,71,30.23,10.0,North,11.5,16.1,N/A,,Scattered Clouds,350,2012-12-09 13:55:00
9:35 AM,46.4,37.4,71,30.23,10.0,North,11.5,-,N/A,,Partly Cloudy,360,2012-12-09 14:35:00
9:55 AM,48.2,39.2,71,30.23,10.0,North,9.2,-,N/A,,Clear,10,2012-12-09 14:55:00
10:15 AM,48.2,39.2,71,30.24,10.0,NNE,8.1,-,N/A,,Scattered Clouds,20,2012-12-09 15:15:00
10:35 AM,48.2,37.4,66,30.23,10.0,NNE,11.5,16.1,N/A,,Partly Cloudy,30,2012-12-09 15:35:00
10:55 AM,50.0,37.4,62,30.23,10.0,NE,6.9,-,N/A,,Mostly Cloudy,50,2012-12-09 15:55:00
11:35 AM,48.2,37.4,66,30.22,10.0,NE,11.5,-,N/A,,Overcast,50,2012-12-09 16:35:00
11:55 AM,48.2,37.4,66,30.20,10.0,NE,10.4,16.1,N/A,,Overcast,50,2012-12-09 16:55:00
12:15 PM,48.2,37.4,66,30.21,10.0,NE,12.7,-,N/A,,Mostly Cloudy,50,2012-12-09 17:15:00
12:35 PM,48.2,37.4,66,30.22,10.0,NE,12.7,17.3,N/A,,Scattered Clouds,50,2012-12-09 17:35:00
1:15 PM,48.2,33.8,58,30.22,10.0,NE,9.2,-,N/A,,Overcast,40,2012-12-09 18:15:00
1:35 PM,48.2,33.8,58,30.22,10.0,NNE,9.2,-,N/A,,Overcast,30,2012-12-09 18:35:00
1:55 PM,48.2,33.8,58,30.23,10.0,NNE,10.4,-,N/A,,Overcast,20,2012-12-09 18:55:00
2:15 PM,48.2,35.6,62,30.23,10.0,NE,6.9,-,N/A,,Overcast,40,2012-12-09 19:15:00
2:35 PM,48.2,35.6,62,30.23,10.0,NE,8.1,-,N/A,,Overcast,50,2012-12-09 19:35:00
3:15 PM,48.2,37.4,66,30.24,9.0,East,9.2,-,N/A,,Overcast,80,2012-12-09 20:15:00
3:35 PM,48.2,37.4,66,30.24,10.0,East,8.1,-,N/A,,Overcast,90,2012-12-09 20:35:00
3:55 PM,48.2,37.4,66,30.24,10.0,East,8.1,-,N/A,,Overcast,80,2012-12-09 20:55:00
4:15 PM,46.4,37.4,71,30.25,10.0,East,10.4,-,N/A,,Overcast,90,2012-12-09 21:15:00
4:35 PM,46.4,37.4,71,30.24,10.0,East,11.5,17.3,N/A,,Overcast,80,2012-12-09 21:35:00
4:55 PM,46.4,35.6,66,30.24,10.0,East,13.8,17.3,N/A,,Overcast,80,2012-12-09 21:55:00
5:15 PM,46.4,35.6,66,30.24,10.0,East,13.8,18.4,N/A,,Overcast,90,2012-12-09 22:15:00
5:35 PM,46.4,35.6,66,30.24,10.0,East,12.7,19.6,N/A,,Overcast,80,2012-12-09 22:35:00
5:55 PM,46.4,35.6,66,30.24,10.0,East,12.7,18.4,N/A,,Overcast,90,2012-12-09 22:55:00
6:15 PM,44.6,37.4,76,30.24,10.0,East,12.7,17.3,N/A,,Overcast,90,2012-12-09 23:15:00
6:35 PM,44.6,37.4,76,30.25,10.0,East,13.8,-,N/A,,Overcast,90,2012-12-09 23:35:00
6:55 PM,44.6,39.2,81,30.26,10.0,East,10.4,17.3,N/A,,Overcast,90,2012-12-09 23:55:00
7:15 PM,44.6,39.2,81,30.25,8.0,East,13.8,19.6,N/A,,Overcast,90,2012-12-10 00:15:00
7:35 PM,44.6,39.2,81,30.24,10.0,East,13.8,18.4,N/A,,Overcast,80,2012-12-10 00:35:00
7:55 PM,44.6,41.0,87,30.24,9.0,East,11.5,18.4,N/A,,Overcast,90,2012-12-10 00:55:00
8:55 PM,44.6,42.8,93,30.20,8.0,East,13.8,21.9,0.02,,Overcast,100,2012-12-10 01:55:00
9:15 PM,46.4,42.8,87,30.19,10.0,East,16.1,23.0,N/A,,Overcast,90,2012-12-10 02:15:00
9:35 PM,46.4,42.8,87,30.18,7.0,East,17.3,25.3,0.02,,Overcast,90,2012-12-10 02:35:00
9:55 PM,46.4,42.8,87,30.17,5.0,East,19.6,26.5,0.03,,Overcast,100,2012-12-10 02:55:00
10:35 PM,46.4,44.6,93,30.15,6.0,East,17.3,24.2,0.03,,Overcast,100,2012-12-10 03:35:00
11:55 PM,48.2,44.6,87,30.09,9.0,ESE,18.4,24.2,N/A,,Overcast,110,2012-12-10 04:55:00